This demonstration page uses our WeatherBlox Daily Observations layout. Learn more.

Left ArrowRight Arrow

41.12389, -100.76542

Hourly Observations for September 17, 2017

Temp ( °F °C ) Dew Point ( °F °C ) Humidity (%) Winds ( mph kmh ) Pressure ( in mb ) Visibility ( mi km ) Precip ( " mm )
12:53 am 00:53 Clear 47 8.3 44 6.7 90 90 NE 3 6 30.16 1022 10 16 0.00 0.00
1:53 am 01:53 Clear 46 7.8 44 6.7 93 93 Calm 30.18 1022 10 16 0.00 0.00
2:53 am 02:53 Partly Cloudy 45 7.2 44 6.7 97 97 Calm 30.19 1022 10 16 0.00 0.00
3:53 am 03:53 Clear 43 6.1 42 5.6 97 97 Calm 30.20 1023 10 16 0.00 0.00
4:53 am 04:53 Clear 42 5.6 40 4.4 92 92 N 3 6 30.20 1023 10 16 0.00 0.00
5:53 am 05:53 Mostly Cloudy 43 6.1 41 5 93 93 ENE 3 6 30.22 1023 10 16 0.00 0.00
6:53 am 06:53 Mostly Cloudy 45 7.2 43 6.1 93 93 Calm 30.23 1024 10 16 0.00 0.00
7:53 am 07:53 Mostly Cloudy 46 7.8 44 6.7 93 93 Calm 30.23 1024 10 16 0.00 0.00
8:53 am 08:53 Partly Cloudy 48 8.9 46 7.8 93 93 Calm 30.24 1024 10 16 0.00 0.00
9:53 am 09:53 Cloudy 50 10 47 8.3 89 89 ESE 5 7 30.25 1025 10 16 0.00 0.00
10:53 am 10:53 Mostly Cloudy 52 11.1 45 7.2 77 77 ESE 7 11 30.25 1024 10 16 0.00 0.00
11:53 am 11:53 Partly Cloudy 56 13.3 46 7.8 70 70 ESE 13 20 30.25 1025 10 16 0.00 0.00
12:53 pm 12:53 Mostly Sunny 60 15.6 47 8.3 62 62 VRB 7 11 30.22 1023 10 16 0.00 0.00
1:53 pm 13:53 Sunny 64 17.8 46 7.8 52 52 VRB 5 7 30.17 1022 10 16 0.00 0.00
2:53 pm 14:53 Sunny 68 20 46 7.8 45 45 ESE 10 17 30.11 1020 10 16 0.00 0.00
3:53 pm 15:53 Sunny 70 21.1 47 8.3 44 44 ESE 16 26 30.07 1018 10 16 0.00 0.00
4:53 pm 16:53 Sunny 72 22.2 47 8.3 41 41 ESE 14 22 30.05 1018 10 16 0.00 0.00
5:53 pm 17:53 Sunny 72 22.2 45 7.2 38 38 SSE 14 22 30.03 1017 10 16 0.00 0.00
6:53 pm 18:53 Sunny 69 20.6 46 7.8 44 44 SSE 12 19 30.00 1016 10 16 0.00 0.00
7:53 pm 19:53 Clear 64 17.8 48 8.9 56 56 SE 8 13 30.01 1016 10 16 0.00 0.00
8:53 pm 20:53 Mostly Cloudy 62 16.7 50 10 65 65 ESE 7 11 30.03 1017 10 16 0.00 0.00
9:53 pm 21:53 Cloudy with Light Rain 60 15.6 53 11.7 78 78 ESE 9 15 30.06 1018 10 16 0.01 0.25
10:53 pm 22:53 Cloudy 60 15.6 53 11.7 78 78 ESE 13 20 30.01 1016 10 16 0.00 0.03
11:53 pm 23:53 Cloudy 60 15.6 52 11.1 75 75 SE 9 15 30.02 1017 10 16 0.00 0.03

Powered by AerisWeather